Stations météo

réclame
Mon MeteoGroup
Olbia/Costa Smeralda, Italie (16531): Température de l'air & dewpoint: 18.04.2018 10:00:00 - 24.04.2018 10:00:00 (CEST)Olbia/Costa Smeralda, Italie (16531): Vitesse du vent: 18.04.2018 10:00:00 - 24.04.2018 10:00:00 (CEST)Olbia/Costa Smeralda, Italie (16531): Direction du vent: 18.04.2018 10:00:00 - 24.04.2018 10:00:00 (CEST)Olbia/Costa Smeralda, Italie (16531): reduced air pressure: 18.04.2018 10:00:00 - 24.04.2018 10:00:00 (CEST)Olbia/Costa Smeralda, Italie (16531): visibility: 18.04.2018 10:00:00 - 24.04.2018 10:00:00 (CEST)Olbia/Costa Smeralda, Italie (16531): Quantités de précipitations: 18.04.2018 10:00:00 - 24.04.2018 10:00:00 (CEST)
Date & Time tt [°C] td [°C] ff [km/h] ff [knt] dd ppp [hPa] vv [km] rr [mm]
24.04.2018 10:00:00 22,0 9,0 5 3 SSW - 10 -
24.04.2018 09:00:00 18,0 10,0 4 2 - - 10 -
24.04.2018 08:00:00 14,5 10,0 4 2 - 1019,0 10 -
24.04.2018 07:00:00 12,0 8,0 4 2 - - 10 -
24.04.2018 06:00:00 13,0 8,0 4 2 - - 10 -
24.04.2018 05:00:00 14,0 9,1 8 4 SSW 1018,2 10 0,0
24.04.2018 04:00:00 14,0 9,0 9 5 WSW - 10 -
24.04.2018 03:00:00 15,0 10,0 8 4 SSW - 10 -
24.04.2018 02:00:00 12,2 10,3 2 1 - 1019,1 10 -
24.04.2018 01:00:00 12,0 11,0 2 1 - - 10 -
24.04.2018 00:00:00 13,0 11,0 4 2 SSE - 10 -
23.04.2018 23:00:00 14,0 11,8 4 2 SSE 1019,3 10 0,0
23.04.2018 22:00:00 15,0 12,0 5 3 SW - 10 -
23.04.2018 21:00:00 18,0 13,0 5 3 NE - 10 -
23.04.2018 20:00:00 20,3 12,6 2 1 N 1018,3 20 -
23.04.2018 19:00:00 23,0 11,0 11 6 ENE - 10 -
23.04.2018 18:00:00 25,0 10,0 13 7 ENE - 10 -
23.04.2018 17:00:00 24,7 10,6 15 8 E 1018,2 30 0,0
23.04.2018 16:00:00 25,0 12,0 16 9 ENE - 10 -
23.04.2018 15:00:00 25,0 12,0 18 10 NE - 10 -
23.04.2018 14:00:00 24,4 11,3 16 9 ENE 1019,1 27 -
23.04.2018 13:00:00 24,0 11,0 18 10 NE - 10 -
23.04.2018 12:00:00 24,0 11,0 11 6 ENE - 10 -
23.04.2018 11:00:00 23,6 11,0 5 3 N 1020,2 30 0,0
23.04.2018 10:00:00 22,0 10,0 4 2 - - 10 -
23.04.2018 09:00:00 19,0 10,0 4 2 - - 10 -
23.04.2018 08:00:00 16,4 9,8 9 5 SW 1019,3 30 -
23.04.2018 07:00:00 14,0 9,0 16 9 SW - 10 -
23.04.2018 06:00:00 - - - - - - - -
23.04.2018 05:00:00 13,4 8,9 5 3 SW 1018,9 - 0,0
23.04.2018 04:00:00 - - - - - - - -
23.04.2018 03:00:00 - - - - - - - -
23.04.2018 02:00:00 10,6 8,6 2 1 N 1019,4 - -
23.04.2018 01:00:00 - - - - - - - -
23.04.2018 00:00:00 - - - - - - - -
22.04.2018 23:00:00 14,3 11,4 5 3 W 1019,5 - 0,0
22.04.2018 22:00:00 16,0 13,0 4 2 - - 10 -
22.04.2018 21:00:00 18,0 14,0 5 3 NE - 10 -
22.04.2018 20:00:00 19,6 12,1 8 4 NE 1018,0 27 -
22.04.2018 19:00:00 23,0 12,0 13 7 ENE - 10 -
22.04.2018 18:00:00 24,0 10,0 15 8 ENE - 10 -
22.04.2018 17:00:00 24,1 10,0 15 8 ENE 1017,7 30 0,0
22.04.2018 16:00:00 25,0 10,0 18 10 ENE - 10 -
22.04.2018 15:00:00 24,0 10,0 21 11 NE - 10 -
22.04.2018 14:00:00 23,4 12,7 18 10 ENE 1018,6 10 -
22.04.2018 13:00:00 23,0 11,0 18 10 ENE - 10 -
22.04.2018 12:00:00 25,0 12,0 11 6 ENE - 10 -
22.04.2018 11:00:00 24,3 11,3 4 2 - 1019,0 10 0,0
22.04.2018 10:00:00 22,0 13,0 2 1 - - 10 -
22.04.2018 09:00:00 17,0 12,0 4 2 - - 10 -
22.04.2018 08:00:00 13,7 11,3 0 0 N 1018,6 30 -
22.04.2018 07:00:00 10,0 8,0 4 2 - - 10 -
22.04.2018 06:00:00 10,0 9,0 4 2 WNW - 10 -
22.04.2018 05:00:00 11,2 9,1 0 0 N 1018,3 15 0,0
22.04.2018 04:00:00 11,0 9,0 2 1 - - 10 -
22.04.2018 03:00:00 12,0 10,0 4 2 SW - 10 -
22.04.2018 02:00:00 12,3 9,9 2 1 - 1018,9 10 -
22.04.2018 01:00:00 - - - - - - - -
22.04.2018 00:00:00 13,0 12,0 2 1 - - 10 -
21.04.2018 23:00:00 14,3 12,2 2 1 - 1019,2 10 0,0
21.04.2018 22:00:00 15,0 12,0 2 1 - - 10 -
21.04.2018 21:00:00 18,0 13,0 2 1 - - 10 -
21.04.2018 20:00:00 19,5 13,6 9 5 NNE 1018,1 20 -
21.04.2018 19:00:00 23,0 12,0 11 6 ENE - 10 -
21.04.2018 18:00:00 24,0 11,0 11 6 E - 10 -
21.04.2018 17:00:00 24,6 11,3 13 7 E 1018,4 20 0,0
21.04.2018 16:00:00 25,0 10,0 18 10 E - 10 -
21.04.2018 15:00:00 26,0 11,0 18 10 NE - 10 -
21.04.2018 14:00:00 26,4 9,5 15 8 ENE 1018,8 10 -
21.04.2018 13:00:00 26,0 10,0 13 7 NE - 10 -
21.04.2018 12:00:00 26,0 7,0 8 4 - - 10 -
21.04.2018 11:00:00 25,2 10,6 5 3 SW 1019,7 10 0,0
21.04.2018 10:00:00 22,0 12,0 16 9 SW - 10 -
21.04.2018 09:00:00 19,0 12,0 18 10 SW - 10 -
21.04.2018 08:00:00 16,3 11,7 11 6 WSW 1019,6 15 -
21.04.2018 07:00:00 15,0 11,0 18 10 SW - 10 -
21.04.2018 06:00:00 15,0 12,0 18 10 SW - 10 -
21.04.2018 05:00:00 14,7 11,6 13 7 SW 1019,2 10 0,0
21.04.2018 04:00:00 15,0 12,0 18 10 SW - 10 -
21.04.2018 03:00:00 16,0 12,0 18 10 SW - 10 -
21.04.2018 02:00:00 15,9 12,1 13 7 SW 1020,1 10 -
21.04.2018 01:00:00 16,0 12,0 15 8 WSW - 10 -
21.04.2018 00:00:00 16,0 12,0 9 5 W - 10 -
20.04.2018 23:00:00 17,3 12,2 16 9 WSW 1020,6 10 0,0
20.04.2018 22:00:00 18,0 13,0 15 8 SW - 10 -
20.04.2018 21:00:00 19,0 13,0 15 8 WSW - 10 -
20.04.2018 20:00:00 18,6 11,7 4 2 N 1020,1 10 -
20.04.2018 19:00:00 21,0 13,0 13 7 ENE - 10 -
20.04.2018 18:00:00 23,0 11,0 15 8 E - 10 -
20.04.2018 17:00:00 23,3 11,1 16 9 E 1020,2 15 0,0
20.04.2018 16:00:00 25,0 10,0 18 10 ENE - 10 -
20.04.2018 15:00:00 25,0 11,0 16 9 ENE - 10 -
20.04.2018 14:00:00 24,0 8,4 13 7 ENE 1021,7 20 -
20.04.2018 13:00:00 24,0 12,0 16 9 ENE - 10 -
20.04.2018 12:00:00 23,0 12,0 11 6 E - 10 -
20.04.2018 11:00:00 22,3 11,4 5 3 NE 1022,8 10 0,0
20.04.2018 10:00:00 21,0 13,0 2 1 - - 10 -
20.04.2018 09:00:00 16,0 13,0 2 1 - - 10 -
20.04.2018 08:00:00 12,7 11,6 4 2 S 1022,4 10 -
20.04.2018 07:00:00 10,0 9,0 4 2 - - 10 -
20.04.2018 06:00:00 9,0 8,0 2 1 - - 10 -
20.04.2018 05:00:00 10,2 9,4 2 1 N 1022,6 12 0,0
20.04.2018 04:00:00 10,0 10,0 8 4 SSW - 10 -
20.04.2018 03:00:00 10,0 10,0 2 1 - - 10 -
20.04.2018 02:00:00 10,9 9,9 2 1 N 1023,6 12 -
20.04.2018 01:00:00 11,0 10,0 2 1 - - 10 -
20.04.2018 00:00:00 13,0 12,0 4 2 - - 10 -
19.04.2018 23:00:00 13,6 12,3 4 2 - 1024,3 15 0,0
19.04.2018 22:00:00 14,0 13,0 4 2 SSW - 10 -
19.04.2018 21:00:00 16,0 14,0 2 1 - - 10 -
19.04.2018 20:00:00 17,4 14,0 11 6 ENE 1023,9 15 -
19.04.2018 19:00:00 20,0 14,0 9 5 ENE - 10 -
19.04.2018 18:00:00 20,0 14,0 11 6 NE - 10 -
19.04.2018 17:00:00 20,0 14,5 16 9 ENE 1024,4 10 0,0
19.04.2018 16:00:00 20,0 15,0 21 11 ENE - 10 -
19.04.2018 15:00:00 21,0 14,0 21 11 ENE - 10 -
19.04.2018 14:00:00 20,6 14,3 18 10 ENE 1025,1 10 -
19.04.2018 13:00:00 21,0 14,0 18 10 ENE - 10 -
19.04.2018 12:00:00 21,0 14,0 9 5 ENE - 10 -
19.04.2018 11:00:00 20,4 13,5 9 5 NE 1025,6 10 0,0
19.04.2018 10:00:00 19,0 13,0 5 3 NW - 10 -
19.04.2018 09:00:00 16,0 13,0 4 2 - - 10 -
19.04.2018 08:00:00 13,0 11,6 5 3 S 1025,4 20 -
19.04.2018 07:00:00 12,0 11,0 4 2 - - 10 -
19.04.2018 06:00:00 13,0 11,0 5 3 SW - 10 -
19.04.2018 05:00:00 12,8 11,2 5 3 WSW 1024,8 10 0,0
19.04.2018 04:00:00 13,0 11,0 2 1 - - 10 -
19.04.2018 03:00:00 12,0 10,0 2 1 - - 10 -
19.04.2018 02:00:00 12,2 11,0 5 3 WSW 1025,7 10 -
19.04.2018 01:00:00 11,0 10,0 2 1 SSE - 10 -
19.04.2018 00:00:00 13,0 11,0 8 4 WSW - 10 -
18.04.2018 23:00:00 13,2 11,4 2 1 - 1025,6 10 0,0
18.04.2018 22:00:00 15,0 12,0 5 3 SW - 10 -
18.04.2018 21:00:00 17,0 13,0 4 2 - - 10 -
18.04.2018 20:00:00 17,9 12,9 8 4 E 1024,7 10 -
18.04.2018 19:00:00 20,0 13,0 11 6 ENE - 10 -
18.04.2018 18:00:00 20,0 13,0 13 7 NE - 10 -
18.04.2018 17:00:00 20,1 11,9 18 10 ENE 1024,3 10 0,0
18.04.2018 16:00:00 21,0 12,0 16 9 ENE - 10 -
18.04.2018 15:00:00 21,0 11,0 21 11 ENE - 10 -
18.04.2018 14:00:00 21,0 11,1 21 11 ENE 1024,8 10 -
18.04.2018 13:00:00 21,0 12,0 21 11 NE - 10 -
18.04.2018 12:00:00 20,0 14,0 22 12 ENE - 10 -
18.04.2018 11:00:00 19,4 13,5 13 7 ENE 1024,8 10 0,0
18.04.2018 10:00:00 18,0 14,0 9 5 N - 10 -

tt = Température de l'air
td = dewpoint
ff = Vitesse du vent
dd = Direction du vent
ppp = reduced air pressure
vv = visibility
rr = Quantités de précipitations

stations d'obs. à proximité